Temp
8 8 8 8 7 7 7 7 7 7 7 7 7 6 6 6 5 5 5 5 5 5 5 4 5 5 4 4 5 5 5 5 5 5 5 5 5 5 5 5 5 5 5
8 8 8 8 7 7 7 7 7 7 7 7 6 6 6 6 6 6 5 4 4 4 4 4 4 4 4 4 4 4 4 4 4 4 4 5 5 5 5 5 5 5 5
8 8 8 8 8 8 7 7 7 6 7 7 7 6 6 6 5 5 5 5 5 4 4 4 3 4 4 4 4 4 4 4 4 4 4 4 4 5 5 5 5 4 4
8 8 8 7 7 7 7 7 6 6 6 6 6 6 6 6 5 5 5 5 4 4 4 4 4 3 3 3 3 4 4 3 3 3 3 4 4 4 4 4 4 4 4
7 7 7 7 7 7 6 6 6 6 6 5 5 5 5 5 5 5 4 4 4 4 4 4 4 4 4 3 3 3 3 3 3 3 4 3 3 3 3 3 4 4 4
7 7 7 7 7 6 6 6 5 5 5 5 5 5 5 5 5 5 5 4 4 3 3 3 3 3 3 3 3 2 3 3 3 3 3 3 3 3 3 3 3 3 2
7 6 6 6 6 5 5 5 5 5 5 5 6 5 5 4 4 4 4 4 3 3 2 2 2 2 2 2 2 2 2 3 2 2 3 1 2 1 2 2 2 2 2
5 5 5 5 5 4 4 4 4 4 5 5 5 4 4 3 3 3 4 3 2 2 1 1 1 1 1 1 2 2 2 2 3 2 3 2 2 1 2 2 2 2 2
5 5 5 4 4 4 4 4 4 4 4 3 3 4 4 4 5 4 3 2 2 2 1 1 0 0 0 1 1 1 1 1 2 3 3 2 2 2 2 3 2 2 2
5 5 5 4 4 3 3 3 3 3 3 3 2 2 2 3 3 5 3 2 1 1 1 1 0 0 1 0 0 0 1 1 2 2 2 2 1 2 2 3 2 2 2
4 4 4 3 3 3 3 3 3 3 3 3 3 2 2 2 2 2 3 3 1 0 0 0 -0 0 0 1 1 1 0 1 1 1 2 2 1 2 2 2 2 2 2
4 4 4 3 3 3 3 3 3 3 3 3 3 2 2 2 2 2 2 2 2 1 1 0 -0 -0 0 -0 -0 -1 -1 -0 0 1 1 2 2 2 2 0 1 0 1
4 4 4 4 4 4 3 3 3 4 4 4 3 3 3 2 2 2 2 2 2 1 0 0 -0 -0 -0 -0 -0 -0 -0 -0 -0 0 1 1 1 1 0 0 1 0 0
4 4 3 4 4 4 4 4 5 4 4 4 4 3 3 2 2 1 1 1 2 1 1 -0 -1 -1 -1 -0 -1 -1 -1 -1 -1 -1 -0 1 -0 1 -0 0 0 -0 0
4 4 4 4 4 4 4 5 4 4 4 4 4 4 3 3 2 2 1 1 1 1 1 1 -0 -1 -1 -1 -1 -2 -1 -0 -1 -0 -0 -0 -0 -0 -0 -0 -0 0 0
4 4 4 4 4 4 4 4 4 4 4 4 4 4 3 3 3 2 1 1 0 0 -0 -0 -0 -0 -0 -1 -1 -1 -1 -1 -1 -1 -1 -1 -1 -0 -0 -0 -0 0 -0
3 3 4 4 4 4 4 4 4 4 3 3 3 3 3 3 3 2 2 2 1 1 0 -0 -1 -1 -1 -0 -0 -0 -1 -1 -2 -2 -2 -1 -1 -1 -2 -1 -1 -1 -0
3 3 2 3 3 3 3 3 3 3 3 3 3 2 2 2 2 2 2 2 1 1 1 0 0 0 0 -0 -1 -1 -0 -1 -1 -1 -1 -1 -1 -1 -1 -1 -1 -1 -1
3 3 3 3 3 3 3 3 2 2 2 2 2 2 2 2 1 1 1 1 1 1 1 0 0 0 0 1 0 -0 -1 -1 -1 -1 -2 -2 -2 -2 -2 -2 -2 -2 -2
3 2 2 2 2 2 2 2 2 2 2 2 2 1 1 1 1 1 1 1 1 1 1 0 0 0 0 0 0 -0 -1 -1 -2 -2 -1 -1 -1 -1 -2 -2 -2 -2 -2
2 2 2 2 1 2 1 2 1 1 1 1 1 1 1 1 1 1 1 0 0 0 0 0 0 0 0 -0 -0 -1 -1 -1 -1 -1 -2 -2 -2 -1 -2 -2 -2 -2 -2
1 1 1 1 1 1 1 1 0 0 0 0 0 0 0 0 0 0 0 -0 -0 -0 -0 -1 -1 -1 -1 -1 -1 -1 -1 -2 -2 -2 -2 -3 -2 -2 -2 -3 -3 -3 -3
1 1 1 1 1 0 -0 -0 -1 -1 -0 -1 -1 -1 -1 -1 -1 -1 -1 -0 -1 -1 -1 -1 -1 -1 -1 -2 -2 -2 -2 -2 -2 -3 -3 -3 -4 -3 -4 -4 -4 -4 -4
1 1 1 1 1 1 -0 -1 -1 -1 -1 -1 -1 -2 -2 -2 -1 -1 -1 -1 -1 -1 -1 -2 -2 -2 -2 -2 -2 -3 -3 -3 -3 -3 -3 -4 -4 -5 -5 -4 -5 -5 -5
1 1 0 0 0 0 -0 -1 -2 -2 -2 -2 -2 -3 -2 -2 -2 -2 -2 -2 -2 -2 -2 -2 -2 -3 -3 -3 -3 -3 -3 -4 -4 -4 -4 -4 -5 -5 -5 -5 -6 -6 -6
1 1 0 -0 -1 -1 -1 -1 -2 -2 -3 -3 -3 -4 -4 -4 -3 -3 -3 -3 -3 -3 -3 -3 -3 -3 -3 -4 -4 -4 -4 -4 -5 -5 -5 -5 -6 -6 -6 -6 -6 -6 -6
Height
3143 3141 3139 3137 3135 3133 3130 3129 3127 3127 3126 3124 3123 3122 3121 3121 3120 3119 3118 3119 3119 3118 3118 3118 3117 3117 3118 3118 3118 3118 3118 3119 3119 3119 3120 3120 3121 3121 3122 3122 3123 3123 3123
3136 3133 3132 3130 3127 3124 3122 3119 3118 3117 3116 3115 3115 3114 3113 3112 3111 3110 3109 3109 3109 3110 3109 3108 3108 3108 3109 3109 3109 3110 3110 3111 3111 3112 3113 3113 3114 3115 3115 3116 3116 3117 3117
3128 3126 3124 3121 3118 3116 3114 3112 3109 3107 3106 3106 3105 3105 3104 3103 3102 3101 3100 3099 3100 3101 3100 3099 3099 3098 3098 3099 3100 3100 3101 3102 3102 3103 3104 3105 3107 3107 3108 3108 3109 3109 3110
3122 3119 3116 3113 3111 3109 3107 3104 3102 3100 3099 3098 3097 3095 3095 3095 3094 3093 3092 3091 3090 3090 3091 3091 3090 3089 3089 3090 3089 3090 3091 3092 3093 3094 3095 3096 3097 3099 3100 3100 3101 3103 3103
3116 3113 3109 3106 3104 3102 3099 3097 3095 3093 3093 3091 3089 3088 3087 3087 3087 3086 3084 3083 3081 3079 3078 3078 3078 3078 3077 3078 3078 3079 3080 3082 3083 3084 3084 3084 3087 3089 3091 3092 3094 3095 3096
3110 3106 3103 3099 3096 3094 3092 3090 3089 3088 3086 3084 3084 3082 3081 3080 3078 3077 3075 3074 3071 3069 3066 3064 3063 3063 3064 3065 3066 3067 3069 3070 3071 3074 3071 3071 3078 3080 3080 3081 3083 3085 3084
3104 3100 3097 3093 3090 3088 3086 3084 3084 3084 3081 3078 3077 3076 3075 3074 3072 3071 3068 3066 3063 3058 3056 3055 3054 3054 3053 3054 3055 3056 3058 3059 3058 3058 3064 3063 3061 3065 3064 3072 3074 3074 3074
3098 3095 3091 3087 3085 3083 3081 3080 3079 3079 3076 3072 3071 3069 3070 3070 3068 3066 3063 3058 3054 3051 3049 3047 3045 3044 3043 3043 3043 3044 3045 3047 3049 3052 3051 3055 3054 3055 3060 3063 3065 3064 3064
3093 3089 3085 3082 3080 3078 3076 3075 3074 3073 3071 3068 3066 3064 3062 3062 3063 3063 3060 3054 3049 3045 3041 3039 3039 3038 3036 3035 3035 3037 3037 3037 3039 3042 3047 3046 3050 3052 3055 3057 3058 3056 3055
3089 3084 3079 3076 3075 3074 3072 3070 3068 3068 3067 3065 3063 3060 3058 3055 3052 3057 3056 3051 3046 3041 3037 3035 3034 3032 3032 3029 3028 3027 3027 3027 3030 3034 3039 3042 3044 3046 3049 3050 3050 3051 3051
3085 3080 3075 3072 3071 3069 3068 3067 3065 3064 3063 3061 3060 3059 3057 3054 3051 3047 3048 3048 3044 3038 3035 3032 3030 3028 3027 3023 3018 3018 3016 3016 3020 3026 3032 3036 3038 3041 3040 3044 3044 3045 3043
3081 3078 3073 3070 3068 3066 3064 3062 3061 3060 3058 3058 3057 3055 3053 3051 3048 3045 3042 3041 3039 3036 3033 3030 3027 3024 3022 3019 3015 3011 3007 2998 3008 3016 3023 3026 3027 3031 3033 3034 3038 3039 3039
3079 3076 3073 3069 3067 3064 3061 3059 3058 3057 3056 3055 3054 3052 3049 3047 3044 3041 3039 3037 3036 3033 3029 3026 3024 3022 3020 3017 3015 3010 3007 3001 3003 3004 3005 3017 3013 3026 3027 3030 3032 3033 3033
3077 3074 3071 3068 3066 3063 3060 3058 3057 3056 3054 3053 3051 3048 3045 3042 3039 3037 3034 3032 3030 3029 3026 3022 3021 3019 3018 3016 3013 3012 3009 3009 3009 3010 3007 3015 3018 3020 3024 3028 3029 3029 3028
3073 3071 3069 3066 3064 3061 3059 3056 3055 3053 3051 3049 3046 3044 3041 3037 3035 3033 3030 3027 3025 3024 3023 3021 3018 3016 3015 3014 3011 3011 3010 3010 3010 3013 3015 3016 3018 3018 3020 3021 3021 3021 3021
3069 3067 3065 3062 3060 3058 3056 3054 3052 3049 3047 3045 3042 3039 3037 3034 3032 3030 3027 3024 3021 3019 3017 3017 3016 3013 3012 3011 3010 3008 3008 3008 3008 3008 3009 3011 3012 3012 3013 3014 3014 3013 3013
3064 3062 3060 3058 3055 3053 3051 3049 3047 3045 3043 3041 3039 3036 3034 3031 3029 3027 3024 3020 3018 3016 3015 3013 3011 3010 3008 3007 3006 3005 3005 3005 3005 3004 3003 3002 3002 3004 3005 3006 3007 3006 3005
3059 3057 3055 3053 3050 3048 3046 3044 3042 3041 3038 3036 3034 3032 3029 3027 3024 3022 3020 3018 3015 3013 3011 3009 3008 3006 3004 3001 3001 3000 3000 3000 3000 2999 3000 3000 3001 3000 2999 2999 2998 2997 2997
3053 3051 3049 3047 3045 3043 3041 3039 3037 3035 3033 3031 3030 3028 3027 3024 3021 3018 3016 3014 3011 3009 3007 3005 3004 3003 3001 2998 2996 2994 2993 2993 2992 2992 2993 2993 2993 2993 2993 2993 2992 2991 2989
3046 3044 3043 3041 3039 3037 3035 3033 3031 3030 3028 3027 3025 3023 3020 3019 3017 3015 3013 3011 3008 3006 3004 3002 3000 2999 2997 2995 2993 2992 2991 2989 2990 2990 2990 2989 2989 2988 2988 2987 2986 2985 2984
3038 3037 3035 3034 3032 3030 3028 3027 3025 3023 3022 3020 3019 3017 3015 3013 3011 3009 3007 3005 3004 3002 3000 2998 2997 2995 2994 2992 2991 2989 2988 2987 2987 2985 2984 2983 2983 2983 2982 2981 2980 2978 2977
3030 3027 3025 3024 3023 3022 3021 3019 3017 3016 3015 3013 3011 3009 3008 3007 3006 3004 3002 3000 2999 2997 2996 2994 2993 2992 2990 2988 2987 2986 2984 2983 2982 2981 2980 2979 2978 2977 2976 2974 2972 2970 2969
3021 3019 3018 3016 3014 3013 3011 3009 3007 3006 3005 3005 3004 3002 3000 2999 2997 2996 2996 2995 2993 2991 2990 2988 2987 2985 2984 2983 2982 2981 2980 2979 2978 2976 2975 2973 2971 2970 2969 2967 2964 2962 2961
3013 3011 3009 3006 3004 3004 3001 3000 2998 2997 2996 2995 2995 2993 2992 2991 2989 2989 2988 2987 2986 2985 2984 2982 2981 2980 2979 2978 2977 2975 2975 2973 2972 2970 2969 2968 2965 2963 2962 2960 2957 2955 2953
3002 3001 3000 2998 2995 2995 2991 2989 2987 2987 2986 2986 2985 2983 2983 2982 2981 2980 2979 2978 2977 2977 2976 2975 2974 2973 2972 2971 2970 2969 2968 2967 2966 2964 2963 2961 2960 2957 2954 2952 2949 2948 2945
2991 2990 2989 2988 2986 2985 2984 2981 2976 2975 2974 2976 2975 2975 2974 2974 2971 2970 2970 2969 2969 2968 2968 2968 2967 2966 2965 2964 2963 2962 2961 2960 2959 2958 2957 2955 2953 2951 2948 2945 2942 2941 2938
Wind_Speed
32 33 34 34 34 36 37 37 36 36 36 36 36 36 35 35 35 36 33 33 32 31 31 32 33 34 34 34 33 32 31 31 30 29 28 27 27 26 26 26 25 25 24
33 34 34 34 35 36 38 39 39 39 39 38 38 38 38 38 39 40 40 38 36 34 35 35 37 36 36 37 37 35 35 35 35 34 33 32 31 31 31 30 30 29 29
31 31 31 31 32 34 36 38 39 39 39 39 39 37 38 39 41 42 42 43 41 39 41 40 39 39 38 38 38 38 38 39 39 39 37 36 36 35 35 35 35 35 34
29 29 30 30 29 29 30 30 32 34 35 35 36 38 38 38 38 41 42 42 44 44 44 46 46 45 43 42 44 41 41 41 41 42 41 41 40 40 40 40 40 40 39
31 31 32 31 30 28 28 28 27 28 28 29 31 31 32 32 32 33 36 39 41 43 46 47 50 53 54 52 50 47 47 44 45 43 45 46 43 43 42 43 39 41 45
31 31 30 30 29 27 26 26 23 23 24 25 26 27 27 27 28 28 30 32 35 39 43 46 49 51 54 56 55 50 46 44 45 48 52 50 42 44 45 44 35 43 43
30 29 27 27 27 25 24 23 22 19 22 24 24 24 22 22 22 23 25 28 29 33 35 37 40 43 46 50 53 55 55 51 55 44 46 58 38 49 37 40 38 40 47
26 25 25 23 23 22 22 21 20 17 18 22 22 23 20 17 15 17 20 23 27 30 31 31 31 32 37 39 40 45 48 52 54 47 39 51 44 41 34 31 33 39 35
24 26 25 21 19 17 18 18 18 17 16 19 22 24 24 19 15 13 16 22 27 28 31 32 31 29 29 32 33 35 37 45 47 50 44 35 44 25 26 24 23 24 27
24 26 22 17 17 15 16 17 16 16 16 17 19 22 23 25 27 14 12 18 22 22 23 23 25 26 28 26 29 29 35 35 43 39 40 28 23 31 26 25 28 23 22
23 24 17 14 14 14 14 16 17 17 17 17 17 18 21 24 26 29 19 15 14 19 21 18 18 19 22 22 20 27 32 36 39 32 30 31 26 24 28 28 21 25 23
20 17 14 13 13 13 13 13 14 14 15 16 18 20 22 23 23 25 25 21 17 15 16 15 13 14 16 17 18 22 28 15 36 29 34 36 30 28 27 19 21 17 23
15 12 11 12 12 10 9 9 11 12 13 14 16 19 21 23 24 23 23 22 17 15 14 13 14 13 12 11 13 7 15 9 15 23 23 26 29 30 25 20 21 23 27
15 12 11 11 13 13 11 10 10 11 13 15 17 18 19 20 21 22 22 21 18 15 16 14 11 15 12 12 8 11 10 9 5 6 7 20 18 21 14 25 29 24 23
17 17 17 16 17 16 14 14 15 16 18 19 19 18 18 18 18 19 20 20 19 16 15 15 14 16 12 11 13 10 8 8 8 8 10 9 12 15 19 23 25 28 30
19 20 20 20 20 19 19 18 19 19 19 19 17 17 17 16 15 15 15 17 19 18 18 16 16 16 16 14 13 15 14 13 12 14 13 14 18 21 24 27 29 32 33
21 22 22 22 21 19 19 18 19 20 19 20 18 16 16 15 15 15 14 13 14 16 17 16 17 16 18 18 17 18 17 18 18 20 22 24 25 23 24 25 28 30 31
23 24 24 23 22 22 21 20 20 20 20 20 20 18 15 13 13 13 14 13 13 14 15 16 16 19 19 18 20 20 19 18 19 20 21 18 21 23 23 24 24 25 25
25 25 25 25 25 24 24 23 22 22 22 22 21 21 20 18 16 15 14 14 16 17 18 18 18 17 17 16 14 16 19 18 17 16 17 19 22 23 23 24 23 21 21
27 28 29 27 27 26 26 25 25 25 24 24 23 22 22 22 21 21 20 19 19 19 21 21 20 18 17 16 14 13 12 13 16 18 18 19 19 20 20 21 22 23 23
28 29 30 29 29 28 28 28 28 27 26 25 24 24 24 24 23 22 21 21 20 19 19 20 20 20 19 17 16 15 14 14 14 15 17 19 21 22 22 23 24 25 26
31 31 29 29 29 29 30 30 30 28 27 27 26 26 25 25 25 24 23 21 21 21 20 20 20 20 19 18 18 17 17 17 17 19 20 21 23 24 25 26 28 29 29
32 32 32 32 31 31 31 31 31 30 29 27 27 27 26 25 25 24 24 24 22 21 22 22 21 20 20 20 20 20 20 20 21 22 22 23 24 26 26 27 29 30 32
38 37 35 33 33 32 33 33 33 33 31 30 29 28 27 27 27 26 25 24 25 24 24 23 23 22 22 22 21 22 22 22 22 23 24 24 26 27 27 29 30 31 30
39 40 40 39 37 33 33 35 37 36 34 32 31 30 29 28 28 28 27 26 26 25 26 25 24 24 23 23 23 23 23 23 22 22 23 24 25 27 29 30 29 29 28
36 37 38 39 40 37 35 37 40 39 38 36 35 33 31 29 30 30 28 28 27 26 26 26 25 25 24 23 24 23 22 22 22 22 22 24 26 27 28 28 29 28 27
Wind_Direction
290 287 286 285 283 281 280 277 275 273 272 271 270 269 270 271 268 270 265 262 258 260 268 266 265 263 262 265 266 266 265 265 264 263 261 262 262 261 260 261 260 257 257
289 288 287 284 282 280 279 279 278 277 275 272 270 270 269 267 266 266 265 264 260 256 258 262 263 263 258 258 260 262 263 262 262 262 261 260 260 261 260 259 258 256 255
297 295 293 290 286 283 281 278 277 276 275 275 275 271 269 269 268 267 267 266 263 259 257 258 262 263 265 263 257 258 259 261 261 261 260 261 260 260 260 259 257 256 256
303 301 298 295 292 290 288 286 282 279 278 277 276 275 275 272 270 272 273 273 273 269 262 259 259 261 259 256 261 260 258 259 262 261 261 261 260 261 261 261 262 262 259
302 302 300 297 294 292 290 288 286 283 281 280 279 279 279 281 280 278 277 276 274 272 271 267 260 258 260 261 262 257 258 260 256 260 258 256 258 260 264 265 266 267 268
306 305 303 297 293 291 288 287 287 288 289 286 286 284 283 282 283 282 282 279 276 273 269 266 264 260 258 258 259 260 255 254 252 257 253 262 262 258 260 257 266 267 265
312 311 308 302 293 288 285 284 286 292 293 294 294 292 293 293 291 295 295 294 288 280 277 275 273 269 266 263 260 259 259 259 255 260 266 258 264 254 255 258 265 265 266
317 315 308 303 298 289 287 290 294 296 293 294 296 296 293 291 305 311 308 303 298 293 289 285 279 274 271 268 265 260 260 255 257 260 275 267 263 258 262 257 265 267 263
318 316 310 301 297 291 287 288 291 293 292 294 299 301 302 298 291 296 301 309 306 300 291 289 290 288 281 273 273 267 264 256 251 254 260 272 265 246 253 256 263 268 267
322 322 314 300 295 294 289 287 290 293 293 294 297 302 305 307 309 304 314 312 316 306 301 303 299 293 294 287 271 272 270 263 254 251 253 259 242 252 254 260 268 265 259
326 328 321 308 298 295 294 294 296 297 300 300 299 299 296 297 300 303 312 316 315 302 309 310 303 303 301 289 269 268 278 264 252 239 238 242 239 245 250 253 258 255 224
327 331 335 326 311 303 298 297 299 302 306 308 305 303 298 296 296 298 304 311 316 304 305 316 310 311 313 308 282 290 295 271 238 230 231 230 233 233 237 229 232 248 251
317 329 348 355 347 334 325 324 320 316 319 315 309 304 302 300 299 300 300 304 316 315 315 319 313 312 314 297 319 334 339 58 131 163 180 192 244 225 249 254 268 249 255
298 299 316 333 338 345 347 337 324 316 314 309 305 308 307 301 298 298 300 302 308 317 318 319 312 312 309 299 295 297 332 356 355 319 246 229 256 261 245 251 254 261 266
291 289 289 300 308 312 317 311 301 296 296 299 305 308 308 303 297 298 301 304 305 309 310 320 312 308 313 308 300 302 269 280 298 283 268 252 259 265 268 269 271 276 277
286 287 289 291 294 299 304 304 298 293 291 292 295 302 304 299 293 297 302 306 307 305 306 310 312 310 307 305 286 283 279 269 267 274 269 258 264 266 268 270 273 275 276
286 287 287 286 290 293 294 295 295 294 291 290 293 298 302 299 293 295 300 303 304 306 309 310 309 307 299 294 292 295 289 277 268 263 264 267 269 273 278 275 276 277 278
292 290 288 288 288 287 288 290 290 289 290 289 290 289 289 293 287 289 295 292 294 298 303 308 312 312 316 304 288 282 279 282 275 280 283 282 273 279 283 281 284 281 278
287 286 286 287 289 289 287 286 286 287 287 286 287 288 288 283 279 281 290 293 286 289 294 299 306 308 315 317 307 291 286 285 285 285 285 285 284 285 283 281 280 281 280
288 286 285 286 285 285 285 284 284 284 285 286 285 285 284 285 283 284 287 287 286 287 289 293 296 301 306 312 316 317 311 298 289 287 287 286 284 285 285 286 286 285 284
284 282 282 283 283 284 284 285 284 284 283 283 284 283 282 282 282 283 285 286 287 285 285 288 292 295 297 300 301 301 299 296 294 289 287 286 287 290 291 290 288 286 286
285 279 278 278 280 281 280 282 282 282 282 282 281 282 283 284 285 286 284 283 284 285 285 285 286 289 290 291 292 292 291 290 290 289 290 292 293 293 292 291 292 292 291
285 282 280 279 278 277 276 274 275 276 277 279 279 279 278 277 278 279 281 282 281 279 280 280 280 279 281 283 283 284 286 287 287 289 290 289 289 291 291 291 290 290 290
283 283 282 278 276 276 274 272 272 272 273 273 275 275 275 275 274 275 276 277 277 276 276 276 277 279 279 280 282 282 283 284 283 284 285 287 289 290 290 290 290 290 290
282 282 282 283 280 275 271 270 270 270 269 268 268 268 268 270 271 271 270 269 270 271 272 273 275 276 277 278 279 280 280 280 281 283 284 285 287 290 292 293 292 291 291
290 284 281 281 280 278 275 272 269 267 266 267 268 268 268 267 266 265 265 266 268 268 270 273 274 273 274 275 276 277 279 280 280 281 285 289 293 295 293 292 291 291 290